Location: Lexham
(52.7167°N, 0.7333°E)
Time: 11:16:05
(UTC+00:00)

Daily predictions for brighter satellites

Satellite Brightness Start Highest point End
(mag) Time Altitude Azimuth Time Altitude Azimuth Time Altitude Azimuth
Cosmos 2360 Rocket 3.1 20:18:08 10° NNW 20:23:28 39° NE 20:28:45 10° ESE
Cosmos 2016 Rocket 4.0 20:18:59 10° S 20:25:13 80° E 20:31:25 10° NNE
Cosmos 2173 Rocket 4.5 20:19:09 10° SSW 20:25:17 68° WNW 20:31:33 10° N
Cosmos 1461 3.9 20:23:37 10° SSE 20:26:20 20° ESE 20:29:04 10° ENE
CZ-4B R/B 3.6 20:22:34 10° S 20:28:12 70° WSW 20:33:48 10° NNW
CZ-4C R/B 2.3 20:25:10 10° WSW 20:29:35 70° NW 20:35:23 10° NE
CZ-4B R/B 4.2 20:26:18 10° SE 20:30:40 37° ENE 20:35:09 10° N
Cosmos 1992 Rocket 4.3 20:26:18 10° S 20:31:17 48° ESE 20:36:18 10° NE
ISS -3.8 20:32:43 10° WSW 20:36:02 66° S 20:39:22 10° E
Cosmos 2219 Rocket 3.4 20:31:39 10° NNW 20:36:47 34° NE 20:41:55 10° ESE
Cosmos 1437 Rocket 3.5 20:37:20 10° SSE 20:40:25 28° E 20:43:34 10° NNE
SL-08 R/B 3.3 20:38:58 10° NNE 20:43:50 79° ESE 20:48:34 10° SSW
DEBRIS 3.4 20:43:08 10° WSW 20:46:04 53° SSE 20:54:15 10° E
Cosmos 1626 Rocket 3.5 20:41:41 10° N 20:46:04 77° E 20:50:27 10° SSE
Cosmos 1743 4.3 20:44:07 10° NW 20:46:38 24° W 20:49:08 10° SSW
Cosmos 2098 Rocket 4.3 20:44:35 10° SE 20:48:25 25° E 20:51:50 10° NE
Cosmos 1452 Rocket 4.4 20:43:28 10° SW 20:48:35 55° WNW 20:53:45 10° NNE
NOSS 3-3 (A) 3.7 20:44:03 10° SSW 20:49:14 67° SE 20:55:32 10° NE
Terra 3.1 20:48:25 10° SSW 20:52:46 38° W 20:57:10 10° NNW
Cosmos 2151 2.9 20:49:58 10° N 20:54:05 69° ENE 20:58:09 10° SSE
Cosmos 2322 Rocket 2.5 20:49:51 10° NNW 20:55:29 61° NE 21:00:46 12° SE
Cosmos 1486 Rocket 4.3 20:50:30 10° NNW 20:55:43 60° ENE 21:00:35 12° SE
Helios 1A Rocket 3.8 20:52:49 10° N 20:55:47 38° WNW 20:58:43 10° SW
Cosmos 1302 Rocket 4.4 20:52:11 10° SW 20:57:21 70° WNW 21:02:34 10° NNE
Cosmos 1607 4.1 20:52:14 10° SW 20:58:26 81° NW 21:04:46 10° NE
IRS-1C Rocket 4.3 20:53:40 10° SSE 20:58:47 61° ENE 21:04:00 10° N
Cosmos 909 Rocket 4.0 20:53:27 10° SSW 20:59:42 73° SE 21:06:17 10° NE
Cosmos 2061 Rocket 4.1 20:54:03 10° S 21:00:17 89° ESE 21:06:40 10° N
Cosmos 2082 Rocket 2.5 20:55:43 10° SW 21:01:26 77° WNW 21:07:11 10° NNE
USA 306 1.5 20:59:31 10° W 21:02:33 75° NNW 21:04:31 10° ENE
Cosmos 2237 Rocket 4.5 21:08:50 10° NNW 21:12:39 18° NNE 21:16:27 10° ENE
CZ-4B R/B 2.4 21:09:42 13° SSE 21:12:39 89° W 21:16:10 10° NNW
USA 186 2.9 21:11:31 10° SSW 21:14:01 32° W 21:16:33 10° NNW
Okean O Rocket 2.6 21:12:19 10° S 21:16:23 41° W 21:20:30 10° NNW
Cosmos 2228 4.3 21:16:12 10° SW 21:20:03 39° WNW 21:23:56 10° N
Cosmos 1805 2.8 21:16:51 10° N 21:20:06 65° ENE 21:22:21 18° SSE
NOSS 3-3 (C) 3.8 21:15:47 10° SW 21:21:08 85° SE 21:27:41 10° NE
Cosmos 2278 3.9 21:15:48 10° NW 21:21:32 74° WSW 21:26:23 15° SSE
Meteor 1-5 Rocket 4.3 21:18:40 10° N 21:24:25 74° ENE 21:29:21 15° SSE
COSMOS 2428 4.2 21:19:33 10° NNW 21:24:32 30° NE 21:29:30 10° E
SL-16 R/B 2.7 21:20:27 10° NW 21:26:00 56° WSW 21:30:55 13° S
Okean 1-7 Rocket 3.7 21:22:43 10° N 21:27:12 67° ENE 21:30:35 17° SSE
Cosmos 1544 Rocket 3.7 21:23:43 10° SSW 21:28:03 73° WNW 21:32:23 10° N
CZ-2C R/B 1.8 21:27:13 22° SSE 21:28:52 78° ENE 21:31:39 10° NNW
NOSS 3-4 (A) 3.9 21:25:48 10° NW 21:32:22 73° SW 21:38:39 16° SSE
NOSS 3-4 (C) 3.9 21:26:25 10° NW 21:33:01 74° SW 21:39:18 16° SSE
Cosmos-2242 4.4 21:34:03 17° ESE 21:35:52 22° E 21:39:06 10° NE
Cosmos 1891 Rocket 4.5 21:31:09 10° S 21:37:16 85° W 21:43:21 10° N
Okean-O 4.3 21:33:40 10° SSW 21:37:27 28° W 21:41:16 10° NW
Cosmos 2034 Rocket 4.5 21:32:54 16° SSE 21:37:47 47° E 21:43:47 10° NNE
Cosmos 1933 3.5 21:37:27 10° SSW 21:41:13 65° WNW 21:45:02 10° N
Ariane Rocket 3.3 21:38:06 14° S 21:42:26 65° WSW 21:47:30 10° NNW
COSMOS 2406 3.4 21:36:49 10° SW 21:42:35 77° WNW 21:48:21 10° NNE
ATLAS 2AS CENTAUR R/B 4.4 21:37:22 10° WNW 21:43:33 34° N 21:49:42 10° NE
SPOT 3 Rocket 4.2 21:41:43 11° S 21:46:28 49° W 21:51:28 10° NNW
Nadezhda 4 Rocket 4.0 21:45:11 10° NNW 21:51:20 85° W 21:56:12 17° S
Cosmos 2333 Rocket 3.1 21:48:35 10° NW 21:53:52 40° WSW 21:58:17 14° S
Cosmos 1825 Rocket 3.6 21:52:03 10° NNW 21:56:24 78° W 21:59:17 21° S
Cosmos 1470 4.4 21:54:30 10° NNE 21:56:50 18° ENE 21:58:12 14° E
Helios 1B rocket 3.2 21:55:11 20° ESE 21:56:53 31° ENE 22:00:02 10° N
Cosmos 1763 Rocket 3.8 21:53:12 17° S 21:57:01 50° ESE 22:02:07 10° NNE
Cosmos 1536 3.5 21:54:05 10° N 21:57:31 35° ENE 21:59:12 23° ESE
Cosmos 1898 Rocket 4.5 21:53:24 10° NNW 21:58:14 38° NE 22:02:04 15° ESE
Okean 1 3.0 21:56:18 24° S 21:58:17 69° E 22:01:53 10° NNE
Cosmos 1707 3.1 21:59:51 26° ESE 22:00:10 27° E 22:02:38 10° NNE
Cosmos 2221 4.5 21:59:07 12° ESE 22:00:27 14° E 22:02:37 10° NE
Cosmos 1461 3.0 21:58:36 10° SW 22:02:16 62° NW 22:05:56 10° NE
Cosmos 1833 4.4 21:57:58 15° S 22:02:24 52° ESE 22:07:51 10° NE
Cosmos 1953 Rocket 3.5 21:58:07 10° N 22:02:29 75° ENE 22:04:56 25° SSE
Cosmos 44 3.6 21:57:50 10° NW 22:03:18 81° NE 22:06:56 21° SE
Cosmos 990 Rocket 4.0 21:58:26 10° NNW 22:03:37 85° WSW 22:06:54 23° SSE
Cosmos 2360 Rocket 2.7 22:02:08 10° NW 22:07:38 52° WSW 22:11:23 20° S
Cosmos 2195 Rocket 4.5 22:03:18 10° N 22:09:34 89° W 22:13:53 21° S
Cosmos 2322 4.2 22:04:03 10° NNW 22:09:39 53° NE 22:13:47 18° ESE
ISS -3.9 22:09:25 10° W 22:12:45 67° S 22:14:19 28° ESE
USA 290 2.1 22:12:10 24° SSW 22:13:55 88° NW 22:17:04 10° NNE
Cosmos 2026 Rocket 4.0 22:07:31 10° N 22:13:57 84° E 22:18:17 22° SSE
BREEZE-M DEB (TANK) 2.5 22:11:53 10° WSW 22:13:12 24° SW 22:13:12 24° SW
Cosmos 2058 Rocket 3.4 22:14:25 27° SSE 22:16:22 47° E 22:20:32 10° NNE
CZ-4C R/B 4.1 22:14:13 10° WNW 22:18:47 32° N 22:24:34 10° NE
Helios 1A 3.0 22:17:03 10° NNE 22:20:55 54° ESE 22:22:30 31° SSE
Cosmos 2219 Rocket 2.4 22:15:30 10° NW 22:21:06 62° WSW 22:24:29 24° S
Cosmos 1975 3.9 22:20:45 10° N 22:24:00 28° ENE 22:25:24 22° ESE
Cosmos 2098 Rocket 4.1 22:21:05 10° SSW 22:25:35 43° WNW 22:29:30 10° N
Cosmos 1076 Rocket 4.0 22:21:32 10° NNW 22:25:41 53° W 22:28:03 23° SSW
KORONAS-FOTON 4.1 22:25:06 35° SE 22:25:50 40° E 22:29:03 10° NNE
USA 306 3.2 22:27:29 10° WNW 22:28:32 20° WNW 22:28:32 20° WNW
RESURS DK-1 2.7 22:26:41 10° NNW 22:30:37 56° NE 22:32:35 27° ESE
ARIANE 5 R/B 3.2 22:32:16 25° SE 22:34:30 48° ENE 22:38:49 10° N
ALOS 2 3.4 22:33:58 24° ESE 22:36:11 41° ENE 22:40:20 10° N
Cosmos 2322 Rocket 3.5 22:34:20 10° NW 22:39:11 30° WSW 22:42:34 17° SSW
Cosmos 1766 3.3 22:41:46 10° NNW 22:44:53 49° W 22:45:46 36° SW
SL-16 R/B 4.4 22:40:58 10° NNW 22:45:18 21° NNE 22:49:36 10° E
Cosmos 372 Rocket 3.9 22:40:12 10° NNW 22:45:21 83° WSW 22:47:53 30° SSE
Cosmos 1271 Rocket 2.9 22:46:13 39° ESE 22:46:44 43° E 22:49:58 10° NNE
Cosmos 1842 2.9 22:47:39 49° SE 22:48:03 53° E 22:51:09 10° NNE
Cosmos 1726 Rocket 4.5 22:49:27 16° SW 22:52:18 39° WNW 22:56:09 10° N
Meteor 2-9 Rocket 4.2 22:47:41 10° N 22:53:04 72° ENE 22:55:56 29° SSE
Spot 4 3.9 22:51:57 31° SSE 22:54:14 72° ENE 22:59:03 10° NNW
Cosmos 540 Rocket 3.7 22:52:54 15° SW 22:57:13 67° WNW 23:02:22 10° NNE
Cosmos 2237 Rocket 2.9 22:52:33 10° NNW 22:58:06 50° NE 23:02:16 17° ESE
Aureole 1 Rocket 4.2 22:53:32 10° NNW 22:59:07 57° WSW 23:02:46 26° S
BREEZE-M DEB (TANK) 4.4 22:43:51 10° SW 23:00:39 58° SSE 23:04:48 10° E
Cosmos 1092 Rocket 4.4 22:55:19 10° NNW 23:01:20 56° W 23:05:07 23° SSW
Cosmos 1980 4.2 22:56:43 10° NNW 23:02:18 56° NE 23:06:13 19° SE
CZ-2C R/B 3.8 22:58:57 17° ESE 23:02:25 35° ENE 23:07:05 10° N
ARGOS Delta rocket 4.4 22:59:11 10° NNE 23:04:13 52° E 23:06:31 31° SSE
Cosmos 1937 Rocket 3.4 23:01:47 10° NNW 23:06:58 85° ENE 23:09:26 31° SSE
NOSS 8 (H) 4.4 23:05:23 10° NW 23:08:13 59° NE 23:08:57 42° E
COSMOS 2428 2.7 23:03:38 10° NNW 23:09:21 75° WSW 23:12:10 31° SSE
Meteor 2-2 Rocket 4.5 23:05:51 21° SSW 23:09:41 68° WNW 23:15:28 10° N
Geosat 4.2 23:06:09 10° NNE 23:11:09 73° NW 23:15:10 16° SW
NOSS 0 Rocket 3.9 23:05:43 10° NW 23:11:56 88° WSW 23:15:26 28° SSE
Cosmos-2242 3.8 23:10:18 22° SW 23:12:37 43° WNW 23:16:35 10° N
Cosmos 2227 Rocket 4.1 23:11:04 13° ESE 23:12:45 14° E 23:15:36 10° ENE
Meteor 1-11 Rocket 3.8 23:07:11 10° N 23:12:53 69° ENE 23:15:45 29° SSE
Cosmos 468 Rocket 4.0 23:10:31 23° SSW 23:13:51 82° WNW 23:19:08 10° NNE
MetOp-A 4.2 23:18:10 28° SE 23:20:33 58° ENE 23:25:07 10° N
Cosmos 2263 Rocket 4.4 23:22:03 10° ESE 23:22:49 10° E 23:23:34 10° E
Cosmos 1812 Rocket 3.6 23:25:18 40° SSE 23:26:47 68° E 23:31:12 10° NNE
Cosmos 1238 Rocket 4.1 23:25:54 25° ESE 23:27:03 29° E 23:30:49 10° NNE
Helios 1B rocket 3.6 23:29:08 22° WSW 23:29:55 24° W 23:32:50 10° NW
Cosmos 1470 3.2 23:27:49 10° NNW 23:30:54 37° W 23:31:24 34° WSW
USA 234 3.6 23:25:25 10° ENE 23:31:35 42° SE 23:34:29 28° S
Cosmos 1707 4.4 23:31:20 14° W 23:32:25 17° WNW 23:34:23 10° NNW
Cosmos 1536 4.4 23:29:40 10° NW 23:32:33 22° W 23:33:43 19° WSW
SeaSat 1 3.5 23:28:37 12° ESE 23:32:47 42° NE 23:37:24 10° NNW
CZ-2C R/B 3.8 23:27:35 10° NNE 23:33:11 49° E 23:35:48 29° SSE
ACS3 Solar Sail 3.4 23:29:30 10° NE 23:34:01 22° E 23:37:20 14° SE
Helios 1B 4.5 23:30:09 10° NNE 23:34:25 71° ESE 23:35:46 41° S
Meteor 1-27 Rocket 4.2 23:32:34 29° SSE 23:35:15 50° E 23:40:46 10° NNE
NOSS 8 (E) 4.1 23:32:26 10° NW 23:35:21 74° NE 23:35:47 59° ESE
ATLAS 2AS CENTAUR R/B 4.1 23:29:47 10° NW 23:36:06 38° NNE 23:42:23 10° E
Cosmos 2221 2.5 23:35:23 39° SSW 23:36:52 75° WNW 23:41:05 10° N
BlueWalker 3 4.3 23:41:17 10° E 23:41:17 10° E 23:41:21 10° E
CZ-2C R/B 4.0 23:35:40 10° N 23:40:04 62° WNW 23:42:14 29° SW
Cosmos 1898 Rocket 4.1 23:35:25 10° NW 23:40:18 43° WSW 23:42:13 30° SSW
Cosmos 2279 Rocket 4.3 23:37:49 24° SSW 23:41:40 64° WNW 23:47:55 10° N
Cosmos 2297 Rocket 2.5 23:43:29 32° SSE 23:45:43 51° ESE 23:51:12 10° NE
ISS -1.6 23:46:20 10° W 23:47:15 16° W 23:47:15 16° W
Meteor 2-20 4.4 23:46:32 31° S 23:49:38 76° E 23:55:43 10° NNE
NOSS 8 (F) 3.9 23:48:32 10° NW 23:51:27 86° SW 23:51:35 80° SSE
SAR-Lupe-2 4.0 23:53:11 39° WSW 23:53:30 40° W 23:56:41 10° NNW
Meteor 2-10 Rocket 4.2 23:48:19 10° N 23:53:44 54° ENE 23:57:08 23° SE
GP-B 3.0 23:50:07 10° N 23:54:30 80° W 23:56:01 40° SSW
